| time (UTC) | temp F | wind direction | speed knots | gust knots | rain 1hr in | rain 24hr in | rain mn in | humidity % | barometer mb |
| 20260504080128 | 68 | 263 | 1.7 | 5.2 | 0.00 | 0.00 | 0.00 | 47 | 1011.0 |
| 20260504050445 | 70 | 153 | 2.6 | 8.7 | 0.00 | 0.00 | 0.00 | 43 | 1013.1 |
| 20260504045942 | 70 | 27 | 3.5 | 7.8 | 0.00 | 0.00 | 0.00 | 42 | 1013.1 |
| 20260504045437 | 70 | 256 | 5.2 | 7.8 | 0.00 | 0.00 | 0.00 | 42 | 1013.0 |
| 20260504044933 | 70 | 30 | 3.5 | 6.1 | 0.00 | 0.00 | 0.00 | 42 | 1013.1 |
| 20260504044431 | 70 | 258 | 2.6 | 5.2 | 0.00 | 0.00 | 0.00 | 42 | 1013.2 |
| 20260504043928 | 71 | 210 | 2.6 | 9.6 | 0.00 | 0.00 | 0.00 | 42 | 1013.1 |
| 20260504043425 | 71 | 247 | 3.5 | 6.1 | 0.00 | 0.00 | 0.00 | 42 | 1013.1 |
| 20260504042918 | 71 | 226 | 3.5 | 3.5 | 0.00 | 0.00 | 0.00 | 42 | 1013.1 |
| 20260504042414 | 71 | 249 | 4.3 | 7.0 | 0.00 | 0.00 | 0.00 | 42 | 1013.1 |
| 20260504041910 | 71 | 216 | 1.7 | 5.2 | 0.00 | 0.00 | 0.00 | 41 | 1013.1 |
| 20260504041406 | 71 | 231 | 3.5 | 7.8 | 0.00 | 0.00 | 0.00 | 41 | 1013.1 |
| 20260504040903 | 71 | 254 | 4.3 | 6.1 | 0.00 | 0.00 | 0.00 | 41 | 1013.3 |
| 20260504040400 | 71 | 238 | 1.7 | 11.3 | 0.00 | 0.00 | 0.00 | 41 | 1013.3 |
| 20260504035856 | 72 | 45 | 2.6 | 7.0 | 0.00 | 0.00 | 0.00 | 40 | 1013.2 |
| 20260504035354 | 72 | 209 | 1.7 | 6.1 | 0.00 | 0.00 | 0.00 | 40 | 1013.4 |
| 20260504034850 | 72 | 240 | 1.7 | 7.8 | 0.00 | 0.00 | 0.00 | 40 | 1013.4 |
| 20260504034348 | 72 | 155 | 1.7 | 7.0 | 0.00 | 0.00 | 0.00 | 40 | 1013.4 |
| 20260504033844 | 72 | 353 | 3.5 | 6.1 | 0.00 | 0.00 | 0.00 | 39 | 1013.4 |
| 20260504033343 | 72 | 166 | 3.5 | 6.1 | 0.00 | 0.00 | 0.00 | 40 | 1013.4 |
| 20260504032839 | 73 | 282 | 1.7 | 9.6 | 0.00 | 0.00 | 0.00 | 39 | 1013.5 |
| 20260504032336 | 72 | 127 | 2.6 | 7.8 | 0.00 | 0.00 | 0.00 | 39 | 1013.6 |
| 20260504031833 | 73 | 248 | 0.9 | 3.5 | 0.00 | 0.00 | 0.00 | 39 | 1013.4 |
| 20260504031330 | 73 | 203 | 3.5 | 8.7 | 0.00 | 0.00 | 0.00 | 39 | 1013.4 |
| 20260504030826 | 73 | 98 | 3.5 | 9.6 | 0.00 | 0.00 | 0.00 | 38 | 1013.5 |
| 20260504030324 | 73 | 108 | 1.7 | 7.8 | 0.00 | 0.00 | 0.00 | 39 | 1013.5 |
| 20260504025820 | 74 | 275 | 1.7 | 7.0 | 0.00 | 0.00 | 0.00 | 39 | 1013.5 |
| 20260504025317 | 74 | 138 | 2.6 | 7.8 | 0.00 | 0.00 | 0.00 | 38 | 1013.4 |
| 20260504024813 | 74 | 256 | 3.5 | 7.8 | 0.00 | 0.00 | 0.00 | 38 | 1013.4 |
| 20260504024310 | 74 | 277 | 1.7 | 6.1 | 0.00 | 0.00 | 0.00 | 38 | 1013.4 |
| 20260504023807 | 74 | 273 | 2.6 | 7.8 | 0.00 | 0.00 | 0.00 | 37 | 1013.3 |
| 20260504023304 | 74 | 62 | 4.3 | 8.7 | 0.00 | 0.00 | 0.00 | 38 | 1013.3 |
| 20260504022759 | 74 | 259 | 0.9 | 2.6 | 0.00 | 0.00 | 0.00 | 37 | 1013.3 |
| 20260504022256 | 74 | 91 | 3.5 | 6.1 | 0.00 | 0.00 | 0.00 | 37 | 1013.2 |
| 20260504021753 | 74 | 261 | 1.7 | 6.1 | 0.00 | 0.00 | 0.00 | 37 | 1013.3 |
| 20260504021250 | 75 | 254 | 1.7 | 6.1 | 0.00 | 0.00 | 0.00 | 36 | 1013.1 |
| 20260504020747 | 75 | 252 | 2.6 | 7.8 | 0.00 | 0.00 | 0.00 | 36 | 1013.0 |
| 20260504020243 | 75 | 323 | 0.9 | 2.6 | 0.00 | 0.00 | 0.00 | 37 | 1013.3 |
| 20260504015739 | 75 | 165 | 5.2 | 7.0 | 0.00 | 0.00 | 0.00 | 36 | 1013.1 |
| 20260504015236 | 75 | 72 | 3.5 | 6.1 | 0.00 | 0.00 | 0.00 | 35 | 1012.8 |
| 20260504014732 | 75 | 137 | 0.9 | 7.8 | 0.00 | 0.00 | 0.00 | 35 | 1012.8 |
| 20260504014229 | 76 | 149 | 1.7 | 3.5 | 0.00 | 0.00 | 0.00 | 35 | 1012.7 |
| 20260504013727 | 76 | 264 | 3.5 | 5.2 | 0.00 | 0.00 | 0.00 | 34 | 1012.8 |
| 20260504013224 | 76 | 291 | 2.6 | 8.7 | 0.00 | 0.00 | 0.00 | 34 | 1012.8 |
| 20260504012720 | 76 | 233 | 6.1 | 7.8 | 0.00 | 0.00 | 0.00 | 33 | 1012.8 |
| 20260504012218 | 76 | 320 | 2.6 | 8.7 | 0.00 | 0.00 | 0.00 | 33 | 1012.8 |
| 20260504011715 | 77 | 185 | 2.6 | 7.0 | 0.00 | 0.00 | 0.00 | 33 | 1012.6 |
| 20260504011212 | 77 | 239 | 3.5 | 5.2 | 0.00 | 0.00 | 0.00 | 32 | 1012.8 |
| 20260504010708 | 77 | 192 | 2.6 | 6.1 | 0.00 | 0.00 | 0.00 | 32 | 1013.0 |
| 20260504010203 | 78 | 193 | 1.7 | 7.0 | 0.00 | 0.00 | 0.00 | 31 | 1013.0 |
| 20260504005700 | 78 | 187 | 1.7 | 7.0 | 0.00 | 0.00 | 0.00 | 30 | 1013.1 |
| 20260504005157 | 78 | 290 | 0.9 | 5.2 | 0.00 | 0.00 | 0.00 | 31 | 1013.0 |
| 20260504004655 | 79 | 12 | 0.9 | 5.2 | 0.00 | 0.00 | 0.00 | 30 | 1013.0 |
| 20260504004152 | 79 | 262 | 6.1 | 11.3 | 0.00 | 0.00 | 0.00 | 30 | 1013.1 |
| 20260504003648 | 79 | 276 | 3.5 | 5.2 | 0.00 | 0.00 | 0.00 | 30 | 1012.6 |
| 20260504003145 | 79 | 270 | 1.7 | 11.3 | 0.00 | 0.00 | 0.00 | 30 | 1013.2 |
| 20260504002642 | 80 | 238 | 2.6 | 5.2 | 0.00 | 0.00 | 0.00 | 30 | 1013.0 |
| 20260504002139 | 80 | 215 | 3.5 | 7.8 | 0.00 | 0.00 | 0.00 | 29 | 1013.2 |
| 20260504001637 | 80 | 241 | 4.3 | 6.1 | 0.00 | 0.00 | 0.00 | 28 | 1013.0 |
| 20260504001133 | 81 | 275 | 4.3 | 8.7 | 0.00 | 0.00 | 0.00 | 28 | 1013.3 |
| 20260504000630 | 81 | 330 | 1.7 | 6.1 | 0.00 | 0.00 | 0.00 | 28 | 1013.3 |
| 20260504000128 | 82 | 330 | 3.5 | 6.1 | 0.00 | 0.00 | 0.00 | 28 | 1013.2 |
| 20260503235626 | 82 | 205 | 1.7 | 8.7 | 0.00 | 0.00 | 0.00 | 28 | 1013.3 |
| 20260503235122 | 82 | 45 | 0.9 | 6.1 | 0.00 | 0.00 | 0.00 | 28 | 1013.4 |
| 20260503234620 | 82 | 235 | 2.6 | 5.2 | 0.00 | 0.00 | 0.00 | 27 | 1013.5 |
| 20260503234118 | 82 | 249 | 2.6 | 12.2 | 0.00 | 0.00 | 0.00 | 26 | 1013.5 |
| 20260503233615 | 82 | 238 | 3.5 | 12.2 | 0.00 | 0.00 | 0.00 | 26 | 1013.8 |
| 20260503233110 | 82 | 265 | 2.6 | 3.5 | 0.00 | 0.00 | 0.00 | 26 | 1013.5 |
| 20260503232608 | 82 | 189 | 3.5 | 7.8 | 0.00 | 0.00 | 0.00 | 27 | 1013.5 |
| 20260503232105 | 83 | 212 | 0.9 | 7.8 | 0.00 | 0.00 | 0.00 | 27 | 1013.6 |
| 20260503231603 | 83 | 231 | 4.3 | 7.0 | 0.00 | 0.00 | 0.00 | 26 | 1013.5 |
| 20260503231059 | 82 | 210 | 7.8 | 12.2 | 0.00 | 0.00 | 0.00 | 26 | 1013.6 |
| 20260503230555 | 83 | 262 | 5.2 | 8.7 | 0.00 | 0.00 | 0.00 | 26 | 1013.7 |
| 20260503230052 | 83 | 206 | 7.8 | 12.2 | 0.00 | 0.00 | 0.00 | 25 | 1013.6 |
| 20260503225549 | 83 | 48 | 1.7 | 9.6 | 0.00 | 0.00 | 0.00 | 26 | 1013.6 |
| 20260503225044 | 83 | 149 | 3.5 | 6.1 | 0.00 | 0.00 | 0.00 | 25 | 1013.6 |
| 20260503224542 | 84 | 72 | 5.2 | 11.3 | 0.00 | 0.00 | 0.00 | 25 | 1013.6 |
| 20260503224040 | 84 | 244 | 4.3 | 7.0 | 0.00 | 0.00 | 0.00 | 25 | 1013.8 |
| 20260503223538 | 84 | 285 | 1.7 | 7.8 | 0.00 | 0.00 | 0.00 | 26 | 1013.7 |
| 20260503223033 | 84 | 143 | 1.7 | 7.8 | 0.00 | 0.00 | 0.00 | 27 | 1013.6 |
| 20260503222531 | 85 | 297 | 2.6 | 7.0 | 0.00 | 0.00 | 0.00 | 26 | 1013.7 |
| 20260503222029 | 84 | 117 | 2.6 | 6.1 | 0.00 | 0.00 | 0.00 | 26 | 1013.9 |
| 20260503221527 | 84 | 265 | 2.6 | 9.6 | 0.00 | 0.00 | 0.00 | 26 | 1013.9 |
| 20260503221024 | 85 | 136 | 4.3 | 7.0 | 0.00 | 0.00 | 0.00 | 26 | 1013.8 |
| 20260503220520 | 85 | 253 | 5.2 | 8.7 | 0.00 | 0.00 | 0.00 | 26 | 1014.0 |
| 20260503220017 | 85 | 221 | 7.0 | 11.3 | 0.00 | 0.00 | 0.00 | 27 | 1014.1 |
| 20260503215514 | 84 | 223 | 3.5 | 12.2 | 0.00 | 0.00 | 0.00 | 27 | 1014.2 |
| 20260503215011 | 85 | 220 | 3.5 | 8.7 | 0.00 | 0.00 | 0.00 | 27 | 1014.2 |
| 20260503214510 | 85 | 280 | 5.2 | 7.8 | 0.00 | 0.00 | 0.00 | 27 | 1013.9 |
| 20260503214006 | 85 | 21 | 0.9 | 7.8 | 0.00 | 0.00 | 0.00 | 27 | 1013.9 |
| 20260503213504 | 85 | 39 | 1.7 | 3.5 | 0.00 | 0.00 | 0.00 | 28 | 1014.3 |
| 20260503213000 | 85 | 176 | 5.2 | 8.7 | 0.00 | 0.00 | 0.00 | 26 | 1014.4 |
| 20260503212458 | 85 | 346 | 1.7 | 6.1 | 0.00 | 0.00 | 0.00 | 25 | 1014.7 |
| 20260503211955 | 86 | 203 | 3.5 | 7.8 | 0.00 | 0.00 | 0.00 | 24 | 1014.5 |
| 20260503211452 | 85 | 185 | 3.5 | 7.8 | 0.00 | 0.00 | 0.00 | 24 | 1014.6 |
| 20260503210948 | 86 | 299 | 3.5 | 7.0 | 0.00 | 0.00 | 0.00 | 24 | 1014.8 |
| 20260503210445 | 85 | 104 | 3.5 | 9.6 | 0.00 | 0.00 | 0.00 | 26 | 1014.8 |
| 20260503205939 | 85 | 172 | 3.5 | 7.0 | 0.00 | 0.00 | 0.00 | 26 | 1014.9 |
| 20260503205437 | 86 | 354 | 0.9 | 2.6 | 0.00 | 0.00 | 0.00 | 26 | 1014.8 |
| 20260503204933 | 86 | 253 | 3.5 | 7.0 | 0.00 | 0.00 | 0.00 | 24 | 1015.0 |
| 20260503204430 | 85 | 77 | 0.9 | 5.2 | 0.00 | 0.00 | 0.00 | 27 | 1015.0 |
| 20260503203927 | 85 | 202 | 3.5 | 7.0 | 0.00 | 0.00 | 0.00 | 25 | 1015.1 |
| 20260503203425 | 85 | 327 | 3.5 | 13.0 | 0.00 | 0.00 | 0.00 | 25 | 1015.2 |
| 20260503202921 | 85 | 249 | 3.5 | 7.0 | 0.00 | 0.00 | 0.00 | 25 | 1015.4 |
| 20260503202420 | 85 | 297 | 4.3 | 6.1 | 0.00 | 0.00 | 0.00 | 25 | 1015.4 |
| 20260503201918 | 85 | 279 | 2.6 | 9.6 | 0.00 | 0.00 | 0.00 | 26 | 1015.5 |
| 20260503201414 | 85 | 196 | 2.6 | 6.1 | 0.00 | 0.00 | 0.00 | 26 | 1015.3 |
| 20260503200912 | 84 | 227 | 4.3 | 7.8 | 0.00 | 0.00 | 0.00 | 27 | 1015.7 |
| 20260503200408 | 85 | 347 | 3.5 | 7.0 | 0.00 | 0.00 | 0.00 | 28 | 1015.8 |
| 20260503195905 | 85 | 174 | 3.5 | 7.8 | 0.00 | 0.00 | 0.00 | 27 | 1015.9 |
| 20260503195402 | 85 | 146 | 5.2 | 13.0 | 0.00 | 0.00 | 0.00 | 26 | 1015.9 |
| 20260503194859 | 85 | 241 | 2.6 | 5.2 | 0.00 | 0.00 | 0.00 | 26 | 1015.7 |
| 20260503194355 | 85 | 265 | 5.2 | 12.2 | 0.00 | 0.00 | 0.00 | 25 | 1016.3 |
| 20260503193851 | 85 | 230 | 5.2 | 7.0 | 0.00 | 0.00 | 0.00 | 25 | 1016.2 |
| 20260503193347 | 85 | 239 | 1.7 | 7.0 | 0.00 | 0.00 | 0.00 | 25 | 1016.1 |
| 20260503192843 | 85 | 196 | 3.5 | 7.8 | 0.00 | 0.00 | 0.00 | 23 | 1016.6 |
| 20260503192338 | 85 | 251 | 5.2 | 7.0 | 0.00 | 0.00 | 0.00 | 23 | 1016.4 |
| 20260503191835 | 84 | 229 | 4.3 | 7.0 | 0.00 | 0.00 | 0.00 | 23 | 1016.5 |
| 20260503191332 | 84 | 271 | 1.7 | 5.2 | 0.00 | 0.00 | 0.00 | 25 | 1016.7 |
| 20260503190829 | 84 | 249 | 3.5 | 7.8 | 0.00 | 0.00 | 0.00 | 24 | 1016.9 |
| 20260503190326 | 84 | 335 | 1.7 | 7.8 | 0.00 | 0.00 | 0.00 | 28 | 1016.6 |
| 20260503185823 | 84 | 278 | 3.5 | 9.6 | 0.00 | 0.00 | 0.00 | 26 | 1016.7 |
| 20260503185320 | 84 | 192 | 1.7 | 8.7 | 0.00 | 0.00 | 0.00 | 26 | 1016.7 |
| 20260503184819 | 84 | 286 | 3.5 | 8.7 | 0.00 | 0.00 | 0.00 | 24 | 1016.9 |
| 20260503184316 | 84 | 304 | 2.6 | 5.2 | 0.00 | 0.00 | 0.00 | 24 | 1016.9 |
| 20260503183811 | 84 | 223 | 1.7 | 7.8 | 0.00 | 0.00 | 0.00 | 26 | 1017.0 |
| 20260503183309 | 84 | 240 | 3.5 | 6.1 | 0.00 | 0.00 | 0.00 | 27 | 1017.1 |
| 20260503182806 | 85 | 129 | 3.5 | 11.3 | 0.00 | 0.00 | 0.00 | 27 | 1017.0 |
| 20260503182306 | 85 | 260 | 4.3 | 8.7 | 0.00 | 0.00 | 0.00 | 26 | 1017.1 |
| 20260503181802 | 85 | 16 | 1.7 | 3.5 | 0.00 | 0.00 | 0.00 | 30 | 1017.3 |
| 20260503181259 | 85 | 284 | 6.1 | 7.8 | 0.00 | 0.00 | 0.00 | 27 | 1017.2 |
| 20260503180755 | 84 | 228 | 6.1 | 9.6 | 0.00 | 0.00 | 0.00 | 28 | 1017.5 |
| 20260503180253 | 83 | 318 | 2.6 | 8.7 | 0.00 | 0.00 | 0.00 | 28 | 1017.6 |
| 20260503175749 | 83 | 207 | 0.9 | 8.7 | 0.00 | 0.00 | 0.00 | 30 | 1017.5 |
| 20260503175248 | 84 | 238 | 4.3 | 7.8 | 0.00 | 0.00 | 0.00 | 29 | 1017.5 |
| 20260503174743 | 83 | 18 | 1.7 | 5.2 | 0.00 | 0.00 | 0.00 | 34 | 1017.7 |
| 20260503174242 | 83 | 270 | 3.5 | 7.0 | 0.00 | 0.00 | 0.00 | 33 | 1017.8 |
| 20260503173742 | 83 | 236 | 3.5 | 5.2 | 0.00 | 0.00 | 0.00 | 34 | 1017.8 |
| 20260503173238 | 83 | 227 | 1.7 | 5.2 | 0.00 | 0.00 | 0.00 | 34 | 1017.9 |
| 20260503172735 | 83 | 354 | 0.9 | 5.2 | 0.00 | 0.00 | 0.00 | 35 | 1018.2 |
| 20260503172232 | 82 | 206 | 1.7 | 3.5 | 0.00 | 0.00 | 0.00 | 37 | 1018.2 |
| 20260503171728 | 81 | 283 | 1.7 | 3.5 | 0.00 | 0.00 | 0.00 | 36 | 1018.3 |
| 20260503171226 | 82 | 308 | 1.7 | 5.2 | 0.00 | 0.00 | 0.00 | 36 | 1018.3 |
| 20260503170723 | 81 | 322 | 1.7 | 3.5 | 0.00 | 0.00 | 0.00 | 37 | 1018.2 |
| 20260503170220 | 80 | 244 | 4.3 | 5.2 | 0.00 | 0.00 | 0.00 | 37 | 1018.2 |
| 20260503160141 | 76 | 269 | 1.7 | 2.6 | 0.00 | 0.00 | 0.00 | 40 | 1018.6 |
| 20260503150611 | 72 | 84 | 0.9 | 3.5 | 0.00 | 0.00 | 0.00 | 44 | 1018.6 |
| 20260503150108 | 71 | 35 | 0.9 | 1.7 | 0.00 | 0.00 | 0.00 | 48 | 1018.7 |
| 20260503130955 | 59 | 93 | 0.0 | 1.7 | 0.00 | 0.00 | 0.00 | 72 | 1018.7 |
| 20260503130453 | 57 | 233 | 1.7 | 2.6 | 0.00 | 0.00 | 0.00 | 73 | 1018.7 |
| 20260503110337 | 54 | 128 | 0.0 | 1.7 | 0.00 | 0.00 | 0.00 | 73 | 1018.4 |
| 20260503090224 | 57 | 35 | 1.7 | 2.6 | 0.00 | 0.00 | 0.00 | 64 | 1019.8 |
| 20260503081151 | 57 | 41 | 0.0 | 2.6 | 0.00 | 0.00 | 0.00 | 64 | 1020.0 |
| 20260503080646 | 58 | 1 | 0.9 | 1.7 | 0.00 | 0.00 | 0.00 | 63 | 1020.1 |